Regional Weather Roundup
Issued by NWS

Home | Current Version | Previous Version | Text Only | Print | Product List | Glossary Off
Versions: 1 2 3 4 5 6 7 8 9 10 11 12 13 14 15 16 17 18 19 20 21 22 23 24 25 26 27 28 29 30 31 32 33 34 35 36 37 38 39 40 41 42 43 44 45 46 47 48 49 50

000
ASUS43 KDMX 290107
RWRIA

WEATHER ROUNDUP FOR IOWA
NATIONAL WEATHER SERVICE DES MOINES IA
800 PM CDT MON JUL 28 2014

NOTE: "FAIR" INDICATES FEW OR NO CLOUDS BELOW 12,000 FEET WITH NO
SIGNIFICANT WEATHER AND/OR OBSTRUCTIONS TO VISIBILITY.

* - THESE STATIONS ARE NOT NWS STATIONS...THUS NOT UNDER NWS
QUALITY CONTROL.  THEY ALSO DO NOT REPORT WEATHER SUCH
AS PRECIPITATION OR FOG.

IAZ001>003-012>014-020>022-031>034-043>046-290200-
   NORTHWEST IOWA

CITY           SKY/WX    TMP DP  RH WIND       PRES   REMARKS
CARROLL *      CLEAR     70  61  73 CALM      30.17S
CHEROKEE *     PTCLDY    70  57  64 N5        30.18S
DENISON *      MOCLDY    70  61  73 NW6       30.16S
LE MARS *      CLEAR     72  59  64 N5        30.19S
ORANGE CITY *  PTCLDY    72  55  56 N6        30.19F
SHELDON *      CLOUDY    70  59  68 N3        30.19S
SIOUX CITY     CLEAR     74  57  55 N6        30.18F
SPENCER        CLEAR     69  56  62 N6        30.19S
STORM LAKE *   MOCLDY    70  61  73 N7        30.19S
$$

IAZ055>058-069>071-079>083-090>094-290200-
   SOUTHWEST IOWA

CITY           SKY/WX    TMP DP  RH WIND       PRES   REMARKS
ATLANTIC *     MOCLDY    70  61  73 NW6       30.16S
AUDUBON *      CLEAR     72  64  78 N3        30.19S
CLARINDA *     CLEAR     73  59  60 NW5       30.18S
COUNCIL BLFS * CLEAR     73  59  60 N5        30.17S
CRESTON *      CLOUDY    70  59  68 NE8       30.17R
HARLAN  *      CLOUDY    72  59  64 NW6       30.21S
LAMONI         CLOUDY    71  59  65 N5        30.15S
RED OAK *      CLEAR     73  59  60 NW7       30.17S
SHENANDOAH *   CLEAR     73  61  64 CALM      30.18R
$$

IAZ047>049-059>061-072>074-084-290200-
   CENTRAL IOWA

CITY           SKY/WX    TMP DP  RH WIND       PRES   REMARKS
AMES           CLEAR     67  61  81 CALM      30.15S
ANKENY *       CLOUDY    68  63  83 CALM      30.15F
CHARITON *     PTCLDY    70  59  68 NW6       30.15R
DES MOINES     MOCLDY    71  58  63 N6        30.15S
GRINNELL*      CLEAR     68  61  77 W3        30.15S
KNOXVILLE *    CLOUDY    68  59  73 NE9G16    30.14R
MARSHALLTOWN   CLEAR     70  58  65 NE3       30.14S
PELLA *        MOCLDY    68  59  73 NW8       30.15S
PERRY *        MOCLDY    68  64  88 NW3       30.16S
$$

IAZ004>006-015-016-023>025-035-036-290200-
   NORTH CENTRAL IOWA

CITY           SKY/WX    TMP DP  RH WIND       PRES   REMARKS
ALGONA *       CLEAR     70  57  64 NW3       30.18S
CLARION *      CLEAR     70  57  64 N6        30.16S
ESTHERVILLE    CLEAR     68  55  63 N7        30.18F
FORT DODGE *   CLEAR     70  57  64 CALM      30.17F
MASON CITY     MOCLDY    69  55  60 N6        30.17S
FOREST CITY *  CLEAR     68  54  60 N5        30.16S
IOWA FALLS *   MOCLDY    70  57  64 NE5       30.16S
$$

IAZ007>011-017>019-026>030-037>042-050>054-066-290200-
   NORTHEAST IOWA

CITY           SKY/WX    TMP DP  RH WIND       PRES   REMARKS
CEDAR RAPIDS   PTCLDY    68  57  68 NW3       30.12S
CHARLES CITY * PTCLDY    66  57  72 NW3       30.15S
CLINTON *      CLEAR     64  57  77 NW6       30.14S
DECORAH *      CLEAR     66  55  68 NW3       30.13S
DUBUQUE        CLEAR     66  55  67 NW3       30.12F
MONTICELLO *   CLEAR     68  55  64 CALM      30.12S
OELWEIN *      CLEAR     68  57  68 CALM      30.14S
WATERLOO       PTCLDY    69  56  62 N6        30.12F
$$

IAZ064-065-067-068-078-290200-
   EAST CENTRAL IOWA

CITY           SKY/WX    TMP DP  RH WIND       PRES   REMARKS
DAVENPORT      CLEAR     65  56  72 NW5       30.12F
IOWA CITY      CLEAR     69  59  70 W7        30.13F
MT. PLEASANT * CLEAR     68  55  64 NW3       30.13F
MUSCATINE *    PTCLDY    70  57  64 CALM      30.12F
QUAD CITIES    CLEAR     70  49  47 NW5       30.11S
$$

IAZ062-063-075>077-085>089-095>099-290200-
   SOUTHEAST IOWA

CITY           SKY/WX    TMP DP  RH WIND       PRES   REMARKS
BURLINGTON     CLEAR     67  55  65 N3        30.12F
FAIRFIELD *    PTCLDY    68  59  73 NW6       30.14S
FORT MADISON * PTCLDY    68  57  68 NW3       30.13S
KEOKUK *       CLEAR     68  57  68 NW3       30.12F
OSKALOOSA *    MOCLDY    68  61  77 N3        30.14F
CENTERVILLE *  CLEAR     68  61  77 CALM      30.16S
OTTUMWA        PTCLDY    68  58  70 CALM      30.13F
WASHINGTON *   PTCLDY    68  59  73 NW7       30.13F
$$

ABBREVIATIONS USED IN REMARKS
   TC - TEMPERATURES IN CELSIUS
  WCI - WIND CHILL INDEX
   HX - HEAT INDEX
  VSB - VISIBILITY
$$



USA.gov is the U.S. government's official web portal to all federal, state and local government web resources and services.